TimeCST,TemperatureF,Dew PointF,Humidity,Sea Level PressureIn,VisibilityMPH,Wind Direction,Wind SpeedMPH,Gust SpeedMPH,PrecipitationIn,Events,Conditions,WindDirDegrees,DateUTC
12:56 AM,20.1,18.1,92,30.47,8.0,Calm,Calm,-,N/A,,Clear,0,2012-11-29 06:56:00
1:56 AM,20.1,19.0,96,30.47,6.0,Calm,Calm,-,N/A,,Clear,0,2012-11-29 07:56:00
2:56 AM,18.1,17.1,96,30.46,5.0,Calm,Calm,-,N/A,,Clear,0,2012-11-29 08:56:00
3:56 AM,18.1,16.2,92,30.45,7.0,Calm,Calm,-,N/A,,Clear,0,2012-11-29 09:56:00
4:56 AM,19.0,17.1,92,30.46,5.0,Calm,Calm,-,N/A,,Clear,0,2012-11-29 10:56:00
5:56 AM,20.1,18.1,92,30.48,5.0,Calm,Calm,-,N/A,,Clear,0,2012-11-29 11:56:00
6:56 AM,18.1,16.2,92,30.48,4.0,Calm,Calm,-,N/A,,Clear,0,2012-11-29 12:56:00
7:56 AM,31.1,27.1,85,30.47,3.0,Calm,Calm,-,N/A,,Clear,0,2012-11-29 13:56:00
8:56 AM,38.8,31.1,74,30.47,10.0,Calm,Calm,-,N/A,,Clear,0,2012-11-29 14:56:00
9:56 AM,43.9,29.1,56,30.47,10.0,Calm,Calm,-,N/A,,Clear,0,2012-11-29 15:56:00
10:56 AM,48.9,28.0,44,30.44,10.0,Calm,Calm,-,N/A,,Clear,0,2012-11-29 16:56:00
11:56 AM,54.0,26.1,34,30.40,10.0,Variable,5.8,-,N/A,,Clear,0,2012-11-29 17:56:00
12:56 PM,55.9,28.0,34,30.36,10.0,SW,5.8,-,N/A,,Clear,220,2012-11-29 18:56:00
1:56 PM,55.9,28.0,34,30.34,10.0,WSW,6.9,-,N/A,,Clear,250,2012-11-29 19:56:00
2:56 PM,56.8,30.0,36,30.34,10.0,WNW,4.6,-,N/A,,Clear,290,2012-11-29 20:56:00
3:56 PM,52.0,31.1,45,30.34,10.0,Calm,Calm,-,N/A,,Clear,0,2012-11-29 21:56:00
4:56 PM,37.9,30.0,73,30.35,10.0,Calm,Calm,-,N/A,,Clear,0,2012-11-29 22:56:00
5:56 PM,34.0,29.1,82,30.37,10.0,Calm,Calm,-,N/A,,Clear,0,2012-11-29 23:56:00
6:56 PM,32.9,29.1,86,30.38,10.0,Calm,Calm,-,N/A,,Clear,0,2012-11-30 00:56:00
7:56 PM,31.1,28.0,88,30.37,10.0,Calm,Calm,-,N/A,,Clear,0,2012-11-30 01:56:00
8:56 PM,30.0,27.1,89,30.36,10.0,Calm,Calm,-,N/A,,Clear,0,2012-11-30 02:56:00
9:56 PM,30.0,27.1,89,30.36,10.0,Calm,Calm,-,N/A,,Clear,0,2012-11-30 03:56:00
10:56 PM,32.0,28.0,85,30.35,10.0,Calm,Calm,-,N/A,,Clear,0,2012-11-30 04:56:00
11:56 PM,28.0,25.2,89,30.35,10.0,Calm,Calm,-,N/A,,Clear,0,2012-11-30 05:56:00